Погода в Саконнакхоне

Таиланд     17°09′56″N   104°09′01″E
темп.,
°C
ветер,
м/с
пор.,
м/с
влажн.,
%
обл.,
%
осадки,
мм/ч
давл.,
гПа
погр.,
м
16 апреля, пт
пт1601:00+26вюв35775 2.7 1008127
04:00+24в25825 0.6 1008128
07:00+26вюв357610 0.6 1009225
10:00+31ююв3353100 0.0 1011778
13:00+34ю334280 0.0 1008964
16:00+36ююз323212 0.1 10051936
19:00+29св355699 0.6 1007169
22:00+26в3877100 1.6 1011363
17 апреля, сб
сб1701:00+24всв1287100 4.4 1011125
04:00+23всв2589100 3.1 1010236
07:00+24всв1284100 6.6 1012245
10:00+28вюв3470100 2.8 1014828
13:00+29в446295 2.9 10111202
16:00+31вюв2255100 0.0 10081372
19:00+26юв487976 1.3 1010298
22:00+25вюв2583100 1.0 1012181
18 апреля, вс
вс1801:00+24вюв258898 2.1 1011176
04:00+23вюв3791100 2.8 1011278
07:00+23вюв3687100 6.3 1013255
10:00+25в3479100 2.6 1013408
13:00+27вюв3267100 2.6 1010767
16:00+29юв2358100 0.0 1008896
19:00+26в117189 0.3 100914
22:00+25зсз2386100 1.9 101089
19 апреля, пн
пн1901:00+24ссз1289100 1.9 100960
04:00+23с1192100 0.0 100835
07:00+25зюз118593 0.1 1010188
10:00+30ююз225829 0.0 10101161
13:00+34зюз444595 0.3 10072217
16:00+32зсз235099 0.3 1005911
19:00+29всв226441 0.4 100649
22:00+28юв346860 0.6 100884
20 апреля, вт
вт2001:00+24вюв59914 3.6 1008288
04:00+23вюв37935 1.3 1007299
07:00+25вюв468653 2.1 1010337
10:00+30юв446145 3.9 1010976
13:00+33ююз334895 4.8 10071981
16:00+32зюз1251100 0.5 1005767
19:00+29св116291 0.6 100717
22:00+28всв227070 0.4 100934